TJS-4

Last updated on Thu Sep 10 2026 00:03:00 GMT+0000 (Coordinated Universal Time)

1 44637U 19070A 26252.60212837 -.00000190 00000+0 00000+0 0 9996 2 44637 0.0347 104.3444 0003105 142.0104 42.5497 1.00269376 25384
UTC large
Height (km)
Speed (km/s)
/
Latitude / Longitude
Inclination (degrees)
Orbital Period (minutes)
Azimuth
Elevation
Range (km)
Doppler Factor

Next 0 passes for location: London (51.5072 / 0.1276)

No passes found over London.
TJS-4